Regional Weather Roundup
Issued by NWS

Home | Current Version | Previous Version | Text Only | Print | Product List | Glossary Off
Versions: 1 2 3 4 5 6 7 8 9 10 11 12 13 14 15 16 17 18 19 20 21 22 23 24 25 26 27

000
ASUS45 KBOU 240907
RWRCO

WEATHER ROUNDUP FOR COLORADO
NATIONAL WEATHER SERVICE DENVER/BOULDER CO
300 AM MDT FRI OCT 24 2014

NOTE: "FAIR" INDICATES FEW OR NO CLOUDS BELOW 12000 FEET WITH NO
SIGNIFICANT WEATHER AND/OR OBSTRUCTIONS TO VISIBILITY.

COZ001>005-013-030-031-241000-
...NORTHWEST COLORADO...

CITY           SKY/WX    TMP DP  RH WIND       PRES   REMARKS
CRAIG          CLEAR     34  30  85 SE3       30.28R
HAYDEN         PTCLDY    41  30  65 E7        30.28R
MEEKER         PTCLDY    39  33  79 E5        30.28R
MOUNT WERNER   NOT AVBL
STEAMBOAT SPGS PTCLDY    35  30  82 CALM      30.30R
WALDEN         CLOUDY    41  23  48 SE12      30.31R
$$

COZ006>008-011-241000-
...WEST CENTRAL VALLEYS...

CITY           SKY/WX    TMP DP  RH WIND       PRES   REMARKS
GRAND JUNCTION CLEAR     46  35  65 SE13      30.23R
MONTROSE       CLEAR     43  33  68 S9        30.31S
EAGLE          NOT AVBL
RIFLE          PTCLDY    38  35  89 E3        30.29S
DELTA          CLEAR     46  34  64 NE6       30.28S
NUCLA          CLEAR     45  30  57 SE6       30.34S
$$

COZ017>023-064>068-241000-
...SOUTHWEST COLORADO...

CITY           SKY/WX    TMP DP  RH WIND       PRES   REMARKS
DURANGO        CLEAR     38  34  85 N7        30.36R
CORTEZ         CLEAR     35  29  78 NE7       30.32S WCI  29
PAGOSA SPRINGS CLEAR     39  36  89 CALM      30.41S
TELLURIDE      PTCLDY    40  25  53 SE7       30.48F
WOLF CREEK PAS PTCLDY    36  30  80 SW12        N/A
$$

COZ009-010-012-014-032>034-037-058>063-241000-
...CENTRAL COLORADO...

CITY           SKY/WX    TMP DP  RH WIND       PRES   REMARKS
ASPEN          CLEAR     35  25  66 SW5       30.37R WCI  31
BUENA VISTA    CLEAR     34  26  73 NW5       30.39R WCI  30
COPPER MTN     CLEAR     39  18  41 SW3       30.56S
BERTHOUD PASS  FAIR      34  32  93 W38G46    30.50F WCI  19
COTTONWOOD PAS CLEAR     50  14  23 SW9G18    30.46R
GUNNISON       CLEAR     30  25  80 CALM      30.46S
KREMMLING      PTCLDY    32  28  86 SE3         N/A
LEADVILLE      CLEAR     33  21  61 N3        30.46R
MONARCH PASS   PTCLDY    34  25  69 W28       30.67R WCI  20
SALIDA         CLEAR     47  27  45 NW8       30.42F
SUNLIGHT       CLEAR     39  27  60 CALM      30.51F
WILKERSON PASS NOT AVBL
$$

COZ069>075-241000-
...SAN LUIS VALLEY/SANGRE DE CRISTO MOUNTAINS...

CITY           SKY/WX    TMP DP  RH WIND       PRES   REMARKS
ALAMOSA        PTCLDY    29  25  85 CALM      30.39S
LA VETA PASS   CLEAR     43  28  56 S17G32    30.44S
SAGUACHE       CLEAR     41  28  60 NW17      30.40S
$$

COZ035-036-038>040-241000-
...NORTHERN COLORADO FRONT RANGE...

CITY           SKY/WX    TMP DP  RH WIND       PRES   REMARKS
DENVER INTL AP CLOUDY    57  29  34 S9        30.14R
DMNS CITY PARK   N/A     53  34  47 S7        30.13S
AURORA         MOCLDY    56  29  35 S9        30.16R
FRONT RANGE AP CLOUDY    54  34  47 S12       30.16R
ERIE MUNI ARPT CLOUDY    52  33  47 CALM      30.13R
BOULDER MUN AP CLOUDY    68  23  18 SW9       30.12R
CENTENNIAL     CLOUDY    59  26  28 S10       30.17R
BROOMFIELD     CLOUDY    70  21  16 SW21G28   30.15S
FORT COLLINS   CLOUDY    48  34  57 SE3       30.13S
LONGMONT       CLOUDY    53  35  50 CALM      30.14R
$$

COZ041-046-047-076>085-087-088-241000-
...PIKES PEAK/PALMER DIVIDE AND SOUTHERN FOOTHILLS...

CITY           SKY/WX    TMP DP  RH WIND       PRES   REMARKS
COLO. SPRINGS  MOCLDY    48  33  56 NE5       30.22R
A. F. ACADEMY  CLOUDY    47  30  50 VRB2      30.22S
ELLICOTT       NOT AVBL
FALCON         MOCLDY    45  32  60 NW5       30.26S
FORT CARSON    MOCLDY    48  33  55 NW6       30.19R
LIMON          PTCLDY    41  35  79 N8        30.16S
MONUMENT HILL  CLOUDY    52  25  35 W12       30.24R
TRINIDAD       CLEAR     49  34  56 VRB3      30.22R
$$

COZ042>045-048>051-090-091-241000-
...NORTHEAST COLORADO...

CITY           SKY/WX    TMP DP  RH WIND       PRES   REMARKS
GREELEY ARPT   CLOUDY    45  34  65 NW5       30.12R
AKRON          PTCLDY    53  35  50 SW14      30.10R
BURLINGTON     CLEAR     50  42  74 SW8       30.09F
WRAY           CLEAR     54  39  56 SW12      30.05S
STERLING       PTCLDY    41  36  81 S5        30.06S
HOLYOKE        NOT AVBL
FORT MORGAN    PTCLDY    47  33  60 W7        30.09F
$$

COZ086-089-092>099-241000-
...SOUTHEAST COLORADO...

CITY           SKY/WX    TMP DP  RH WIND       PRES   REMARKS
PUEBLO         PTCLDY    45  34  65 VRB3      30.15S
LA JUNTA       CLEAR     50  38  63 S6        30.12S
LAMAR          CLEAR     42  39  89 S5        30.09S
SPRINGFIELD      N/A     49  45  86 CALM      30.13F
$$



USA.gov is the U.S. government's official web portal to all federal, state and local government web resources and services.